www.pogodaiklimat.ru

Погода и климат >> Архив погоды >> Франция >> Карпентрас


ПОГОДА в Карпентрасе

  • Прогноз погоды в Карпентрасе
  • Монитор погоды в Карпентрасе

АРХИВ ПОГОДЫ в Карпентрасе

Время (UTC), дата Ветер
(напр.,м/с)
 
Видим.   Явления Облачность Т
(С)
Тd
(С)
f
(%)
Тe
(С)
Тes
(С)
Комфортность P
(гПа)
Po
(гПа)
Тmin
(С)
Tmax
(С)
R
(мм)
R24
(мм)
S
(см)
22 11.06 З 1 н/о н/о +13.5 +13.0 97 +14 +14 1012.8 1000.2
23 11.06 ЮЗ 1 н/о н/о +13.3 +12.7 96 +14 +14 1013.0 1000.4
00 12.06 штиль 0
{2}
н/о н/о +13.2 +12.7 97 +13 +13 1012.5 999.9 5
01 12.06 Ю 1 н/о н/о +13.1 +12.6 97 +14 +14 1012.9 1000.3
02 12.06 штиль 0 н/о н/о +12.7 +12.1 96 +12 +12 1012.6 999.9
03 12.06 СЗ 1
{3}
н/о н/о +12.3 +12.1 99 +13 +13 1012.6 999.9 0.4
04 12.06 штиль 0 н/о н/о +11.9 +11.7 99 +11 +11 1012.7 1000.0
05 12.06 штиль 0 н/о н/о +11.5 +11.2 98 +11 +11 1013.1 1000.4
06 12.06 ЮВ 1
{3}
н/о н/о +12.3 +12.0 98 +13 +13 1013.4 1000.7 +11.4 +13.5 5
07 12.06 З 1 н/о н/о +13.3 +12.5 95 +14 +14 1013.8 1001.2
08 12.06 З 2 н/о н/о +15.7 +12.8 83 +16 +16 1013.9 1001.4
09 12.06 СЗ 2
{6}
н/о н/о +18.2 +10.8 62 +19 +19 1013.7 1001.3
10 12.06 З 2 н/о н/о +20.0 +9.3 50 +22 +22 комфорт 1013.8 1001.4
11 12.06 З 2 н/о н/о +21.3 +8.5 44 +22 +22 комфорт 1013.4 1001.1
12 12.06 З 1
{6}
н/о н/о +22.4 +7.8 39 +23 +23 комфорт 1013.5 1001.2
13 12.06 З 1 н/о н/о +22.4 +6.6 36 +23 +23 комфорт 1013.4 1001.1
14 12.06 ЮЗ 1 н/о н/о +24.1 +6.4 32 +24 +24 комфорт 1013.2 1001.0
15 12.06 ЮЗ 1
{5}
н/о н/о +24.7 +7.3 33 +25 +25 комфорт 1013.1 1000.9
16 12.06 ЮЗ 1 н/о н/о +25.2 +7.8 33 +25 +25 комфорт 1012.7 1000.6
17 12.06 ЮЗ 1 н/о н/о +24.2 +7.8 35 +25 +25 комфорт 1012.7 1000.5
18 12.06 ЮЗ 1
{6}
н/о н/о +23.0 +8.7 40 +24 +24 комфорт 1013.1 1000.9 +12.2 +25.3
19 12.06 ЮЗ 1 н/о н/о +20.0 +9.5 51 +22 +22 комфорт 1013.8 1001.4
20 12.06 Ю 1 н/о н/о +16.1 +9.3 64 +18 +18 1014.8 1002.3
21 12.06 В 1
{2}
н/о н/о +14.2 +9.8 75 +15 +15 1015.7 1003.1
22 12.06 В 1 н/о н/о +12.7 +10.2 85 +14 +14 1016.2 1003.5
23 12.06 В 1 н/о н/о +11.9 +10.0 88 +13 +13 1016.2 1003.5
00 13.06 В 2
{3}
н/о н/о +11.2 +9.5 89 +10 +10 1016.4 1003.6
01 13.06 В 1 н/о н/о +10.3 +9.1 92 +10 +10 1016.0 1003.2
02 13.06 В 1 н/о н/о +9.7 +8.6 93 +10 +10 1015.7 1002.9
03 13.06 ЮВ 1
{4}
н/о н/о +9.2 +8.3 94 +8 +8 1015.5 1002.6 0.2
04 13.06 ЮВ 1 н/о н/о +8.6 +7.7 94 +9 +9 1015.2 1002.3
05 13.06 СЗ 1 н/о н/о +8.9 +8.3 96 +9 +9 1015.7 1002.8
06 13.06 ЮВ 1
{3}
н/о н/о +12.7 +9.7 82 +14 +14 1016.3 1003.6 +8.4 +22.9 0.2
07 13.06 Ю 1 н/о н/о +16.0 +10.1 68 +17 +17 1016.5 1003.9
08 13.06 Ю 1 н/о н/о +18.6 +10.2 58 +21 +21 комфорт 1016.1 1003.6
09 13.06 С 1
{3}
н/о н/о +21.1 +10.0 49 +23 +23 комфорт 1015.8 1003.5
10 13.06 З 1 н/о н/о +23.0 +11.4 48 +25 +25 комфорт 1015.6 1003.3
11 13.06 ЮЗ 1 н/о н/о +24.6 +11.2 43 +26 +26 жарко 1015.2 1003.0
12 13.06 З 1
{5}
н/о н/о +26.1 +9.9 36 +27 +27 жарко 1014.7 1002.6
13 13.06 ЮЗ 1 н/о н/о +27.8 +9.1 31 +28 +28 жарко 1014.4 1002.3
14 13.06 ЮЗ 1 н/о н/о +29.2 +6.5 24 +28 +28 жарко 1013.8 1001.8
15 13.06 З 2
{6}
н/о н/о +29.4 +9.5 29 +29 +29 жарко 1013.5 1001.5
16 13.06 Ю 2 н/о н/о +29.1 +10.2 31 +29 +29 жарко 1013.0 1001.0
17 13.06 ЮЗ 2 н/о н/о +27.6 +10.8 35 +28 +28 жарко 1012.9 1000.9
18 13.06 ЮЗ 2
{7}
н/о н/о +23.7 +10.4 43 +25 +25 комфорт 1013.9 1001.7 +12.8 +29.7
19 13.06 З 1 н/о н/о +21.3 +9.2 46 +23 +23 комфорт 1014.4 1002.1
20 13.06 ЮЗ 1 н/о н/о +18.9 +11.5 62 +21 +21 комфорт 1015.3 1002.9
21 13.06 СВ 1
{2}
н/о н/о +16.9 +11.4 70 +18 +18 1015.5 1003.0
22 13.06 В 1 н/о н/о +16.1 +12.3 78 +17 +17 1014.7 1002.2
23 13.06 ЮВ 1 н/о н/о +16.0 +12.4 79 +17 +17 1015.2 1002.7
00 14.06 В 1
{3}
н/о н/о +14.9 +12.2 84 +16 +16 1014.4 1001.8
01 14.06 В 1 н/о н/о +14.7 +12.6 87 +16 +16 1014.5 1001.9
02 14.06 Ю 1 н/о н/о +14.2 +12.2 88 +15 +15 1013.8 1001.2
03 14.06 штиль 0
{3}
н/о н/о +13.8 +11.8 88 +13 +13 1012.3 999.7
04 14.06 ЮВ 1 н/о н/о +14.1 +11.6 85 +15 +15 1011.9 999.3
05 14.06 В 1 н/о н/о +14.6 +12.1 85 +15 +15 1014.3 1001.7
06 14.06 В 1
{5}
н/о н/о +16.0 +10.7 71 +17 +17 1012.9 1000.4 +13.7 +23.7
07 14.06 ЮЗ 1 н/о н/о +17.7 +12.2 70 +19 +19 1012.3 999.9
08 14.06 ЮЗ 1 н/о н/о +21.4 +12.3 56 +24 +24 комфорт 1010.6 998.3
09 14.06 СВ 1
{6}
н/о н/о +20.2 +11.7 58 +23 +23 комфорт 1011.2 998.9
10 14.06 С 1 н/о н/о +22.1 +13.2 57 +25 +25 комфорт 1011.5 999.3
11 14.06 СВ 1 н/о н/о +24.1 +13.3 51 +26 +26 жарко 1010.2 998.1
12 14.06 З 2
{4}
н/о н/о +26.3 +14.7 49 +29 +29 жарко 1008.5 996.5
13 14.06 СЗ 1 н/о н/о +29.5 +15.6 43 +32 +32 душно 1007.9 996.0
14 14.06 СВ 3 н/о н/о +28.2 +14.8 44 +31 +31 душно 1004.4 992.5
15 14.06 З 2
{7}
н/о н/о +27.5 +15.2 47 +30 +30 жарко 1007.1 995.1
16 14.06 З 1 н/о н/о +28.8 +14.6 42 +31 +31 жарко 1006.8 994.9
17 14.06 Ю 3 н/о н/о +30.0 +11.0 31 +30 +30 жарко 1007.4 995.5
18 14.06 ЮЗ 2
{13}
н/о н/о +27.6 +14.6 45 +30 +30 жарко 1008.5 996.5 +16.0 +30.1
19 14.06 ЮЗ 2 н/о н/о +23.6 +16.9 66 +27 +27 жарко 1010.5 998.4
20 14.06 В 1 н/о н/о +22.2 +17.3 74 +27 +27 душно 1011.0 998.8
21 14.06 С 1
{4}
н/о н/о +21.5 +17.5 78 +26 +26 душно 1011.8 999.6
22 14.06 З 1 н/о н/о +21.5 +17.9 80 +26 +26 душно 1012.9 1000.6
23 14.06 штиль 0 н/о н/о +21.1 +18.7 86 +25 +25 комфорт 1013.5 1001.2
00 15.06 штиль 0
{2}
н/о н/о +20.5 +19.0 91 +24 +24 комфорт 1013.5 1001.2 0.2
01 15.06 ЮЗ 1 н/о н/о +20.3 +19.1 93 +26 +26 душно 1013.5 1001.2
02 15.06 ЮЗ 1 н/о н/о +20.1 +18.9 93 +25 +25 комфорт 1013.9 1001.6
03 15.06 З 1
{4}
н/о н/о +19.3 +18.0 92 +23 +23 комфорт 1014.4 1002.0
04 15.06 СЗ 1 н/о н/о +19.0 +17.7 92 +22 +22 комфорт 1014.7 1002.3
05 15.06 З 1 н/о н/о +19.1 +17.8 92 +22 +22 комфорт 1015.1 1002.7
06 15.06 З 1
{3}
н/о н/о +19.1 +17.1 88 +22 +22 комфорт 1015.6 1003.2 +19.0 +27.6 0.2
07 15.06 С 1 н/о н/о +21.6 +17.6 78 +26 +26 душно 1015.3 1003.0
08 15.06 З 1 н/о н/о +24.3 +18.0 68 +29 +29 душно 1015.5 1003.3
09 15.06 СЗ 2
{6}
н/о н/о +23.7 +17.4 68 +28 +28 душно 1015.9 1003.7
10 15.06 ЮЗ 2 н/о н/о +23.8 +18.0 70 +28 +28 душно 1015.9 1003.7
11 15.06 ЮЗ 1 н/о н/о +26.0 +18.7 64 +31 +31 очень
душно
1015.3 1003.2
12 15.06 З 2
{7}
н/о н/о +26.4 +19.0 64 +32 +32 очень
душно
1015.4 1003.3
13 15.06 ЮЗ 2 н/о н/о +27.5 +18.8 59 +33 +33 очень
душно
1015.3 1003.3
14 15.06 ЮЗ 2 н/о н/о +27.9 +17.4 53 +32 +32 душно 1015.8 1003.8
15 15.06 ЮЗ 1
{7}
н/о н/о +27.3 +17.2 54 +31 +31 душно 1015.6 1003.5
16 15.06 С 2 н/о н/о +23.2 +12.8 52 +26 +26 жарко 1016.4 1004.1
17 15.06 СВ 1 н/о н/о +23.3 +13.7 55 +27 +27 душно 1016.2 1004.0
18 15.06 СЗ 1
{5}
н/о н/о +23.5 +13.1 52 +26 +26 жарко 1016.1 1003.9 +19.1 +28.2
19 15.06 СЗ 2 н/о н/о +22.1 +10.6 48 +24 +24 комфорт 1016.4 1004.1
20 15.06 З 2 н/о н/о +19.3 +13.0 67 +21 +21 комфорт 1016.7 1004.3
21 15.06 З 1
{5}
н/о н/о +17.5 +13.2 76 +19 +19 1017.4 1004.9
22 15.06 СЗ 2 н/о н/о +18.9 +10.5 58 +20 +20 1017.9 1005.4
23 15.06 СЗ 2 н/о н/о +18.4 +9.7 57 +19 +19 1018.1 1005.6
00 16.06 СЗ 2
{6}
н/о н/о +18.1 +9.7 58 +19 +19 1018.1 1005.6
01 16.06 С 3 н/о н/о +18.0 +9.9 59 +18 +18 1017.7 1005.2
02 16.06 СВ 1 н/о н/о +16.8 +9.9 64 +18 +18 1017.6 1005.1
03 16.06 С 2
{7}
н/о н/о +17.0 +10.1 64 +17 +17 1017.3 1004.8
04 16.06 С 2 н/о н/о +17.0 +9.9 63 +17 +17 1017.4 1004.9
05 16.06 СЗ 2 н/о н/о +17.5 +10.4 63 +18 +18 1017.6 1005.1
06 16.06 СЗ 2
{7}
н/о н/о +18.9 +11.7 63 +20 +20 1017.8 1005.3 +16.4 +23.7
07 16.06 СЗ 2 н/о н/о +20.9 +11.2 54 +24 +24 комфорт 1017.5 1005.1
08 16.06 СЗ 3 н/о н/о +22.2 +11.3 50 +24 +24 комфорт 1017.2 1004.9
09 16.06 СЗ 2
{11}
н/о н/о +23.5 +13.1 52 +26 +26 жарко 1017.1 1004.9
10 16.06 С 3 н/о н/о +24.9 +13.1 48 +27 +27 жарко 1016.8 1004.6
11 16.06 С 2 н/о н/о +26.2 +12.6 43 +28 +28 жарко 1016.3 1004.2
12 16.06 СЗ 3
{9}
н/о н/о +26.6 +12.6 42 +28 +28 жарко 1015.6 1003.5
13 16.06 СЗ 2 н/о н/о +28.3 +13.8 41 +30 +30 жарко 1015.2 1003.2
14 16.06 СЗ 3 н/о н/о +28.6 +13.7 40 +30 +30 жарко 1014.9 1002.9
15 16.06 С 3
{11}
н/о н/о +28.3 +13.4 40 +30 +30 жарко 1014.4 1002.4
16 16.06 СЗ 3 н/о н/о +28.1 +13.6 41 +30 +30 жарко 1014.1 1002.1
17 16.06 СЗ 3 н/о н/о +26.7 +13.4 44 +29 +29 жарко 1014.3 1002.2
18 16.06 СЗ 3
{11}
н/о н/о +25.6 +13.4 47 +28 +28 жарко 1014.5 1002.4 +18.8 +28.7
19 16.06 СЗ 2 н/о н/о +23.7 +13.3 52 +26 +26 жарко 1014.7 1002.5
20 16.06 СЗ 2 н/о н/о +22.2 +13.3 57 +25 +25 комфорт 1015.1 1002.8
21 16.06 СВ 1
{7}
н/о н/о +20.7 +13.2 62 +25 +25 комфорт 1015.5 1003.2
22 16.06 СВ 1 н/о н/о +18.7 +13.1 70 +21 +21 комфорт 1015.5 1003.1
23 16.06 штиль 0 н/о н/о +18.0 +13.1 73 +18 +18 1015.6 1003.1
00 17.06 Ю 1
{2}
н/о н/о +16.1 +13.2 83 +17 +17 1015.5 1003.0
01 17.06 штиль 0 н/о н/о +15.0 +12.7 86 +15 +15 1015.2 1002.6
02 17.06 Ю 1 н/о н/о +14.6 +12.3 86 +16 +16 1015.0 1002.4
03 17.06 В 1
{3}
н/о н/о +13.9 +11.9 88 +14 +14 1015.2 1002.6
04 17.06 ЮВ 1 н/о н/о +12.9 +11.5 91 +14 +14 1015.6 1002.9
05 17.06 В 1 н/о н/о +13.5 +12.2 92 +14 +14 1015.9 1003.2
06 17.06 Ю 1
{2}
н/о н/о +18.2 +13.7 75 +20 +20 1016.0 1003.5 +12.7 +25.6
07 17.06 Ю 1 н/о н/о +21.3 +14.0 63 +24 +24 комфорт 1016.3 1004.0
08 17.06 З 1 н/о н/о +23.4 +13.8 55 +27 +27 душно 1016.1 1003.9
09 17.06 СВ 1
{3}
н/о н/о +26.1 +14.9 50 +29 +29 жарко 1016.0 1003.9
10 17.06 З 1 н/о н/о +27.2 +14.9 47 +30 +30 душно 1015.8 1003.7
11 17.06 З 1 н/о н/о +28.9 +14.7 42 +31 +31 жарко 1015.5 1003.5
12 17.06 СЗ 1
{5}
н/о н/о +29.7 +14.7 40 +32 +32 душно 1014.8 1002.8
13 17.06 СЗ 1 н/о н/о +31.4 +14.5 36 +33 +33 жарко 1014.5 1002.6
14 17.06 ЮЗ 2 н/о н/о +32.5 +13.7 32 +34 +34 очень
жарко
1014.1 1002.2
15 17.06 ЮЗ 2
{7}
н/о н/о +33.3 +12.3 28 +34 +34 очень
жарко
1013.6 1001.8
16 17.06 ЮЗ 3
{7}
н/о н/о +33.1 +9.2 23 +32 +32 жарко 1013.2 1001.4
17 17.06 З 1 н/о н/о +32.8 +10.2 25 +32 +32 жарко 1013.1 1001.3
18 17.06 Ю 2
{7}
н/о н/о +30.3 +13.1 35 +32 +32 жарко 1013.6 1001.7 +18.4 +33.4
19 17.06 ЮЗ 1 н/о н/о +27.5 +11.9 38 +29 +29 жарко 1014.2 1002.1
20 17.06 ЮЗ 1 н/о н/о +23.2 +14.2 57 +27 +27 душно 1015.1 1002.9
21 17.06 штиль 0
{4}
н/о н/о +21.5 +16.2 72 +25 +25 комфорт 1015.8 1003.5
22 17.06 В 1 н/о н/о +19.2 +15.9 81 +22 +22 комфорт 1016.3 1003.9
23 17.06 В 1 н/о н/о +17.3 +15.1 87 +19 +19 1016.1 1003.6
00 18.06 штиль 0
{1}
н/о н/о +16.2 +14.9 92 +16 +16 1016.0 1003.5
01 18.06 В 1 н/о н/о +15.7 +14.4 92 +17 +17 1015.8 1003.2
02 18.06 ЮВ 1 н/о н/о +14.8 +13.5 92 +16 +16 1015.7 1003.1
03 18.06 В 1
{3}
н/о н/о +14.7 +13.7 94 +16 +16 1015.5 1002.9
04 18.06 В 1 н/о н/о +14.2 +13.4 95 +15 +15 1015.5 1002.9
05 18.06 В 1 н/о н/о +14.8 +14.0 95 +16 +16 1015.5 1002.9
06 18.06 штиль 0
{3}
н/о н/о +18.7 +15.6 82 +20 +20 1015.3 1002.9 +14.1 +30.3
07 18.06 З 1 н/о н/о +22.6 +15.9 66 +27 +27 душно 1015.1 1002.9
08 18.06 З 1 н/о н/о +25.5 +15.5 54 +29 +29 душно 1014.8 1002.7
09 18.06 СЗ 1
{5}
н/о н/о +27.6 +15.9 49 +31 +31 душно 1014.5 1002.5
10 18.06 ЮЗ 1 н/о н/о +30.5 +14.6 38 +33 +33 душно 1014.5 1002.6
11 18.06 Ю 2 н/о н/о +32.7 +11.8 28 +33 +33 жарко 1014.4 1002.5
12 18.06 ЮЗ 2
{8}
н/о н/о +33.5 +10.2 24 +33 +33 жарко 1013.9 1002.1
13 18.06 Ю 2 н/о н/о +33.9 +8.5 21 +32 +32 жарко 1013.8 1002.0
14 18.06 Ю 2 н/о н/о +33.2 +8.6 22 +32 +32 жарко 1013.6 1001.8
15 18.06 ЮЗ 2
{10}
н/о н/о +33.4 +8.1 21 +32 +32 жарко 1013.4 1001.6
16 18.06 ЮЗ 2 н/о н/о +31.7 +8.0 23 +31 +31 жарко 1013.6 1001.7
17 18.06 ЮЗ 2 н/о н/о +30.5 +9.4 27 +30 +30 жарко 1013.8 1001.9
18 18.06 ЮЗ 1
{8}
н/о н/о +28.9 +11.5 34 +30 +30 жарко 1013.9 1001.9 +18.7 +34.0
19 18.06 ЮЗ 1 н/о н/о +25.7 +11.1 40 +27 +27 жарко 1014.3 1002.2
20 18.06 Ю 1 н/о н/о +21.5 +11.2 52 +23 +23 комфорт 1015.0 1002.7
21 18.06 В 1
{2}
н/о н/о +18.9 +11.9 64 +21 +21 комфорт 1015.5 1003.1
22 18.06 В 1 н/о н/о +17.6 +11.8 69 +19 +19 1015.5 1003.0

 

Местоположение метеостанции Карпентрас (Франция): широта 44.08 долгота 5.05 высота над уровнем моря 105 м.

В архиве по умолчанию представлена погода в Карпентрасе за последнюю неделю. Архивные данные за месяц целиком и за предыдущие месяцы, начиная с января 2011 года, Вы можете получить, выбрав интересующий диапазон дат из раскрывающегося списка и нажав кнопку "Ввод!".


*Определитесь, кто Вы:
робот инопланетянин человек

Внимание! Время в таблицах - всемирное. Для получения местного времени необходимо прибавить поправку, которая равна 1 ч.

Смотрите также архив погоды в соседних городах и на ближайших метеорологических станциях:

Погода в Оранже (Франция) (18 км)
Погода в Авиньон (Франция) (22 км)
Погода в Салон-де-Провансе (Франция) (54 км)
Погода в Ним аэропорту (Франция) (57 км)
Погода в Монтелимаре (Франция) (61 км)
Погода в Ниме (Франция) (62 км)
Погода в Истре (Франция) (63 км)
Погода в Мариньяне (Франция) (72 км)
Погода в Обене (Франция) (74 км)
Погода в Шато-Арну-Сент-Обане (Франция) (76 км)

Пояснения к столбцам:

Ветер - указаны скорость ветра в м/с - средняя за 10 мин, порывы в срок и между сроками (в фигурных скобках) и направление, откуда дует ветер: С - северный, СВ - северо-восточный, В - восточный, ЮВ - юго-восточный, Ю - южный, ЮЗ - юго-западный, З - западный, СЗ - северо-западный.
Видимость - горизонтальная дальность видимости в метрах или километрах. При видимости от 1 до 10 км при отсутствии осадков обычно наблюдается дымка, при ухудшении видимости до 1 км и менее - туман. В сухую погоду видимость может ухудшаться дымом, пылью или мглою.
Явления - указаны атмосферные явления, наблюдавшиеся в срок или в последний час перед сроком; фигурными скобками обозначены явления, наблюдавшиеся между сроками (за 1-3 часа до срока); квадратными скобками обозначены град или гололедные отложения с указанием их диаметра в мм.
Облачность - указаны через наклонную черту общая и нижняя облачность в баллах и высота нижней границы облаков в метрах; квадратными скобками обозначены формы облаков: Ci - перистые, Cs - перисто-слоистые, Cc - перисто-кучевые, Ac - высококучевые, As - высокослоистые, Sc - слоисто-кучевые, Ns - слоисто-дождевые, Cu - кучевые, Cb - кучево-дождевые. Подробнее классификацию облаков см. в Атласе облаков (PDF).
T - Температура воздуха - температура, измеренная на высоте 2 м над землей.
Td - Температура точки росы - температура, при понижении до которой содержащийся в воздухе водяной пар достигнет насыщения.
f - Относительная влажность воздуха - влажноcть воздуха, измеренная на высоте 2 м над землей.
Te - Эффективная температура - температура, которую ощущает одетый по сезону человек в тени. Характеристика душности погоды. При расчете учитывается влияние влажности воздуха и скорости ветра на теплоощущения человека.
Tes - Эффективная температура на солнце - температура, которую ощущает человек, с поправкой на солнечный нагрев. Характеристика знойности погоды. Зависит от высоты солнца над горизонтом, облачности и скорости ветра. Ночью, в пасмурную погоду, а также при ветре 12 м/с и более поправка равна нулю.
P - Атмосферное давление - приведенное к уровню моря атмосферное давление.
Po - Атмосферное давление - измеренное на уровне метеостанции атмосферное давление.
Tmin - Минимальная температура - минимум температуры воздуха на высоте 2 м над землей.
Tmax - Максимальная температура - максимум температуры воздуха на высоте 2 м над землей.
R - Количество осадков - Количество выпавших осадков за период времени, мм. При наведении курсора мыши на число - период времени, за который выпало указанное количество осадков.
R24 - Количество осадков - Количество выпавших осадков за 24 часа, мм.
S - Снежный покров - Высота снежного покрова, см. При наведении курсора мыши на число - состояние снежного покрова и степень покрытия местности в баллах.